Date String (YYYY-MM-DD hh:mm:ss) UTC,Instrument flags,Ambient pressure (hPa),Sample flow (lpm),Bypass flow (lpm),Sample temperature (°C),Ambient temperature (°C),ASC tube jacket temperature (°C),LED temperature (°C),Box temperature (°C),Sample RH (%),Span deviation,Mass concentration (μg/m³),Mass concentration (μg/m³),Mass concentration (μg/m³)
DateTimeUTC,F1_M11,P_M11,Q1_M11,Q2_M11,T1_M11,T2_M11,T3_M11,T4_M11,T5_M11,U1_M11,ZSPAN_M11,X0_M11,X2_M11,X1_M11
2023-01-24 09:00:00,,0822.7,5.00,0.00,22.5,20.9,00.0,31.3,24.3,13.3,-002.1,0022.23,0018.63,0018.27
2023-01-24 09:01:00,,0822.8,5.01,0.00,22.5,20.9,00.0,31.3,24.2,13.3,-002.1,0021.93,0018.54,0018.19
2023-01-24 09:02:00,,0822.7,5.00,0.00,22.5,20.9,00.0,31.3,24.2,13.3,-001.8,0021.70,0018.53,0018.16
2023-01-24 09:03:00,,0822.8,5.01,0.00,22.5,21.6,00.0,31.3,24.4,13.3,-001.6,0022.06,0018.55,0018.16
2023-01-24 09:04:00,,0822.8,5.00,0.00,22.6,22.5,00.0,31.3,24.6,13.2,-001.6,0022.32,0018.60,0018.19
2023-01-24 09:05:00,,0822.9,5.01,0.00,22.7,23.0,00.0,31.3,24.8,13.2,-001.7,0022.39,0018.62,0018.19
2023-01-24 09:06:00,,0822.9,4.99,0.00,22.8,22.7,00.0,31.4,24.8,13.1,-001.6,0022.37,0018.64,0018.19
2023-01-24 09:07:00,,0822.9,5.01,0.00,22.8,22.3,00.0,31.4,24.7,13.1,-001.5,0022.38,0018.65,0018.19
2023-01-24 09:08:00,,0822.9,5.00,0.00,22.8,22.0,00.0,31.4,24.6,13.1,-001.4,0022.34,0018.67,0018.21
2023-01-24 09:09:00,,0823.0,4.99,0.00,22.8,21.7,00.0,31.4,24.6,13.1,-001.2,0021.86,0018.76,0018.30
2023-01-24 09:10:00,,0823.0,4.99,0.00,22.7,21.5,00.0,31.4,24.6,13.1,-001.1,0021.68,0018.86,0018.37
2023-01-24 09:11:00,,0823.0,5.00,0.00,22.7,21.4,00.0,31.4,24.5,13.1,-001.1,0021.83,0018.88,0018.37
2023-01-24 09:12:00,,0823.0,5.01,0.00,22.7,21.3,00.0,31.4,24.5,13.1,-001.3,0022.40,0018.89,0018.39
2023-01-24 09:13:00,,0823.0,5.00,0.00,22.7,21.2,00.0,31.4,24.4,13.1,-001.6,0022.36,0018.85,0018.38
2023-01-24 09:14:00,,0823.0,5.00,0.00,22.7,21.2,00.0,31.4,24.4,13.2,-001.7,0021.94,0018.82,0018.39
2023-01-24 09:15:00,,0823.0,5.00,0.00,22.7,21.2,00.0,31.4,24.4,13.2,-001.7,0022.41,0018.83,0018.39
2023-01-24 09:16:00,,0823.0,4.98,0.00,22.6,21.2,00.0,31.4,24.4,13.2,-001.6,0022.80,0018.80,0018.37
2023-01-24 09:17:00,,0823.0,4.98,0.00,22.6,21.2,00.0,31.4,24.3,13.2,-001.6,0022.75,0018.76,0018.35
2023-01-24 09:18:00,,0823.0,4.98,0.00,22.6,21.2,00.0,31.4,24.3,13.2,-001.7,0022.76,0018.78,0018.37
2023-01-24 09:19:00,,0823.0,5.00,0.00,22.6,21.1,00.0,31.4,24.3,13.2,-001.7,0022.80,0018.83,0018.42
2023-01-24 09:20:00,,0823.0,4.98,0.00,22.6,21.1,00.0,31.4,24.3,13.2,-001.7,0022.74,0018.82,0018.40
2023-01-24 09:21:00,,0823.0,5.01,0.00,22.6,21.1,00.0,31.4,24.3,13.3,-001.8,0022.73,0018.85,0018.43
2023-01-24 09:22:00,,0823.1,5.01,0.00,22.6,21.1,00.0,31.4,24.3,13.3,-001.6,0022.76,0018.95,0018.49
2023-01-24 09:23:00,,0823.1,5.00,0.00,22.6,21.1,00.0,31.4,24.3,13.3,-001.6,0022.38,0019.04,0018.55
2023-01-24 09:24:00,,0823.1,5.01,0.00,22.6,21.1,00.0,31.4,24.3,13.3,-001.4,0022.45,0019.09,0018.59
2023-01-24 09:25:00,,0823.1,5.01,0.00,22.5,21.1,00.0,31.4,24.3,13.3,-001.5,0022.38,0019.13,0018.61
2023-01-24 09:26:00,,0823.1,5.00,0.00,22.5,21.0,00.0,31.3,24.3,13.3,-001.4,0021.74,0019.14,0018.64
2023-01-24 09:27:00,,0823.1,5.00,0.00,22.5,21.0,00.0,31.3,24.3,13.3,-001.4,0021.45,0019.19,0018.68
2023-01-24 09:28:00,,0823.1,5.00,0.00,22.5,21.0,00.0,31.3,24.3,13.3,-001.4,0021.51,0019.26,0018.75
2023-01-24 09:29:00,,0823.2,5.00,0.00,22.5,21.2,00.0,31.3,24.3,13.3,-001.4,0021.63,0019.31,0018.80
2023-01-24 09:30:00,,0823.2,4.98,0.00,22.6,22.0,00.0,31.3,24.5,13.3,-001.6,0021.70,0019.35,0018.82
2023-01-24 09:31:00,,0823.2,5.00,0.00,22.7,22.8,00.0,31.3,24.7,13.2,-001.7,0022.24,0019.40,0018.86
2023-01-24 09:32:00,,0823.2,4.99,0.00,22.8,22.9,00.0,31.4,24.8,13.1,-001.8,0022.93,0019.40,0018.85
2023-01-24 09:33:00,,0823.2,5.00,0.00,22.8,22.5,00.0,31.4,24.8,13.1,-001.8,0023.93,0019.41,0018.86
2023-01-24 09:34:00,,0823.2,5.00,0.00,22.8,22.1,00.0,31.4,24.7,13.1,-001.7,0024.09,0019.41,0018.84
2023-01-24 09:35:00,,0823.3,4.99,0.00,22.8,21.8,00.0,31.4,24.6,13.1,-001.9,0024.21,0019.46,0018.86
2023-01-24 09:36:00,,0823.2,5.00,0.00,22.8,21.6,00.0,31.4,24.6,13.1,-001.9,0024.25,0019.50,0018.89
2023-01-24 09:37:00,,0823.2,5.01,0.00,22.8,21.5,00.0,31.4,24.5,13.1,-001.9,0024.51,0019.54,0018.91
2023-01-24 09:38:00,,0823.2,5.00,0.00,22.7,21.4,00.0,31.4,24.5,13.1,-001.9,0024.91,0019.57,0018.94
2023-01-24 09:39:00,,0823.2,4.99,0.00,22.7,21.3,00.0,31.4,24.5,13.1,-001.9,0025.15,0019.57,0018.92
2023-01-24 09:40:00,,0823.2,5.00,0.00,22.7,21.2,00.0,31.5,24.4,13.1,-001.8,0025.09,0019.53,0018.87
2023-01-24 09:41:00,,0823.2,4.99,0.00,22.7,21.3,00.0,31.5,24.4,13.1,-001.7,0025.10,0019.48,0018.82
2023-01-24 09:42:00,,0823.2,4.99,0.00,22.7,21.2,00.0,31.5,24.3,13.1,-001.7,0024.59,0019.35,0018.73
2023-01-24 09:43:00,,0823.3,5.00,0.00,22.6,21.2,00.0,31.5,24.3,13.0,-001.7,0023.73,0019.21,0018.61
2023-01-24 09:44:00,,0823.3,5.01,0.00,22.6,21.1,00.0,31.4,24.3,13.0,-001.6,0022.56,0019.09,0018.52
2023-01-24 09:45:00,,0823.3,4.99,0.00,22.6,21.1,00.0,31.4,24.3,13.0,-001.7,0022.05,0018.93,0018.42
2023-01-24 09:46:00,,0823.3,5.00,0.00,22.6,21.1,00.0,31.4,24.3,12.9,-001.7,0021.79,0018.72,0018.25
2023-01-24 09:47:00,,0823.3,5.00,0.00,22.6,21.0,00.0,31.4,24.3,12.9,-001.6,0021.61,0018.60,0018.14
2023-01-24 09:48:00,,0823.3,4.99,0.00,22.6,20.9,00.0,31.4,24.2,12.9,-001.5,0021.38,0018.51,0018.05
2023-01-24 09:49:00,,0823.4,5.02,0.00,22.5,20.6,00.0,31.4,24.1,13.0,-001.3,0020.88,0018.39,0017.96
2023-01-24 09:50:00,,0823.4,4.99,0.00,22.4,20.4,00.0,31.3,24.0,12.9,-001.4,0020.48,0018.26,0017.85
2023-01-24 09:51:00,,0823.4,5.01,0.00,22.4,20.3,00.0,31.3,23.9,12.9,-001.6,0020.25,0018.12,0017.72
2023-01-24 09:52:00,,0823.4,5.01,0.00,22.4,21.1,00.0,31.3,24.1,12.9,-001.7,0020.04,0017.97,0017.62
2023-01-24 09:53:00,,0823.4,5.01,0.00,22.5,22.2,00.0,31.3,24.4,12.9,-001.7,0020.07,0017.92,0017.57
2023-01-24 09:54:00,,0823.4,4.99,0.00,22.6,22.7,00.0,31.3,24.6,12.8,-001.7,0020.13,0017.91,0017.56
2023-01-24 09:55:00,,0823.4,4.99,0.00,22.6,22.1,00.0,31.3,24.5,12.8,-001.8,0020.24,0017.88,0017.51
2023-01-24 09:56:00,,0823.3,5.02,0.00,22.6,21.5,00.0,31.3,24.3,12.8,-001.6,0020.30,0017.90,0017.50
2023-01-24 09:57:00,,0823.4,5.00,0.00,22.5,21.0,00.0,31.3,24.1,12.8,-001.4,0020.30,0017.96,0017.57
2023-01-24 09:58:00,,0823.4,5.00,0.00,22.4,20.6,00.0,31.3,24.0,12.9,-001.3,0020.38,0017.99,0017.59
2023-01-24 09:59:00,,0823.3,5.02,0.00,22.4,20.3,00.0,31.3,23.9,12.9,-001.5,0020.26,0017.93,0017.57
